Regional Weather Roundup
Issued by NWS

Home | Current Version | Previous Version | Text Only | Print | Product List | Glossary On
Versions: 1 2 3 4 5 6 7 8 9 10 11 12 13 14 15 16 17 18 19 20 21 22 23 24 25 26 27 28 29 30 31 32 33 34 35 36 37 38 39 40 41 42 43 44 45 46 47 48 49 50
000
ASUS43 KDTX 251001
RWRMI
MICHIGAN HOURLY REGIONAL WEATHER ROUNDUP
NATIONAL WEATHER SERVICE DETROIT/PONTIAC MI
600 AM EDT MON SEP 25 2017

NOTE: "FAIR" INDICATES FEW OR NO CLOUDS BELOW 12,000 FEET WITH NO
SIGNIFICANT WEATHER AND/OR OBSTRUCTION TO VISIBILITY.

MIZ047>049-052>055-059>063-066>070-074>076-081>083-251100-
SOUTHEAST LOWER MICHIGAN

CITY           SKY/WX    TMP DP  RH WIND       PRES   REMARKS
ADRIAN         PTCLDY    62  60  93 CALM      30.06F
ALMA           PTCLDY    58  56  93 CALM      30.06S
ANN ARBOR      FOG       60  60 100 CALM      30.06S VSB 1/4
BAD AXE        PTCLDY    63  60  90 CALM      30.07S
CARO           PTCLDY    59  57  96 CALM      30.05S FOG
DETROIT CITY   CLEAR     68  65  90 CALM      30.06S
DETROIT        PTCLDY    68  65  90 CALM      30.06S
FLINT          CLEAR     64  63  96 CALM      30.06S
GROSSE ILE     PTCLDY    66  64  95 CALM      30.04S
HILLSDALE      MOCLDY    63  61  94 CALM      30.06S FOG
HOWELL         CLEAR     63  62  96 CALM      30.06S FOG

CITY           SKY/WX    TMP DP  RH WIND       PRES   REMARKS
JACKSON        PTCLDY    64  61  90 CALM      30.06S
LAMBERTVILLE   FOG       65  63  93 CALM      30.05R VSB 1/4
LANSING        CLOUDY    66  62  87 CALM      30.06S
LAPEER         FAIR      60  58  96 CALM      30.07S FOG
MASON          PTCLDY    66  64  91 CALM      30.06S
MONROE         FOG       65  63  93 CALM      30.04S VSB 1/4
MT. CLEMENS    CLEAR     64  64 100 CALM      30.05S
PONTIAC        PTCLDY    64  64 100 CALM      30.06S
PORT HOPE        N/A     65  62  90 CALM      30.05S
PORT HURON     FOG       59  59 100 CALM      30.07S VSB 1/4
TRI CITIES     PTCLDY    66  64  93 CALM      30.06S
MIDLAND        FAIR      61  61  99 CALM      30.05S
TROY           PTCLDY    68  64  87 CALM      30.07S
SAGINAW HB     PTCLDY    63  59  88 CALM      30.05S
$$
MIZ043>046-050>051-056>058-064>065-071>073-077>080-251100-
SOUTHWEST LOWER MICHIGAN

CITY           SKY/WX    TMP DP  RH WIND       PRES   REMARKS
BATTLE CREEK   MOCLDY    68  65  90 CALM      30.06S
BENTON HARBOR  PTCLDY    67  57  70 SE6       30.03R
BIG RAPIDS     PTCLDY    58  56  94 CALM      30.05S
COLDWATER      PTCLDY    64  64 100 CALM      30.06R FOG
FREMONT        FAIR      64  60  86 SE5       30.03S
HOLLAND        PTCLDY    65  60  84 SE5       30.03S
GRAND RAPIDS   PTCLDY    66  62  87 SE5       30.04S
IONIA          FAIR      63  61  92 SE5       30.05R
KALAMAZOO      MOCLDY    67  62  84 S3        30.06R
LUDINGTON      CLEAR     60  58  93 CALM      30.01R
MARSHALL       MOCLDY    63  62  97 CALM      30.06R FOG
MOUNT PLEASANT PTCLDY    61  60  96 CALM      30.05S
MUSKEGON       PTCLDY    64  59  83 SE5       30.02S
SOUTH HAVEN    PTCLDY    67  61  81 CALM      30.03R
$$
MIZ016>042-251100-
NORTHERN LOWER MICHIGAN

CITY           SKY/WX    TMP DP  RH WIND       PRES   REMARKS
ALPENA         CLEAR     60  60 100 CALM      30.04S
BELLAIRE       FOG       58  57  96 CALM      30.02S VSB 1/2
CADILLAC       CLEAR     58  54  88 CALM      30.05F
CHARLEVOIX     CLEAR     67  63  85 SE5       30.03S
FRANKFORT      CLEAR     67  61  80 CALM      30.00S
GAYLORD        CLEAR     62  59  90 CALM      30.06S
GRAYLING       CLEAR     53  51  92 CALM      30.06F
HARBOR SPRINGS CLEAR     64  62  93 CALM      30.01S
HOUGHTON LAKE  CLEAR     57  56  96 NE3       30.07S
MANISTEE       CLEAR     59  58  96 E5        30.00F
OSCODA         CLEAR     62  60  94 CALM      30.04F
PELLSTON       FOG       56  56 100 CALM      30.02S VSB 1/4
ROGERS CITY    CLEAR     69  61  77 SW8       30.03S
TRAVERSE CITY  CLEAR     69  61  75 CALM      30.00S
$$
MIZ007>008-015-251100-
EASTERN UPPER MICHIGAN

CITY           SKY/WX    TMP DP  RH WIND       PRES   REMARKS
KINROSS        CLEAR     68  63  84 S6        30.01R
MACKINAC ISLAN CLEAR     71  62  72 S9        30.00S
NEWBERRY       CLEAR     66  65  97 S8        29.99S
S. S. MARIE    CLEAR     65  63  93 E3        30.00R
MUNISING         N/A     69  63  81 S5        29.94R
$$
MIZ004>006-011>014-085-251100-
CENTRAL UPPER MICHIGAN

CITY           SKY/WX    TMP DP  RH WIND       PRES   REMARKS
MANISTIQUE     CLEAR     63  57  81 S5        29.98S
ESCANABA       CLEAR     64  63  96 CALM      29.96S
MENOMINEE      CLEAR     65  62  90 CALM      29.97S
SAWYER-GWINN   CLEAR     64  60  90 S8        29.96F
$$
MIZ001>003-009>011-084-251100-
WESTERN UPPER MICHIGAN

CITY           SKY/WX    TMP DP  RH WIND       PRES   REMARKS
IRON MOUNTAIN  CLEAR     66  60  81 SE3       29.96R
HOUGHTON       CLEAR     70  60  70 SW6       29.89S
COPPER HARBOR    N/A     74  60  61 W7        29.86R
IRONWOOD       CLOUDY    69  63  81 SW3       29.93R
$$

ABBREVIATIONS USED IN REMARKS
   TC - TEMPERATURE IN CELSIUS
  WCI - WIND CHILL INDEX
   HX - HEAT INDEX
  VSB - VISIBILITY





USA.gov is the U.S. government's official web portal to all federal, state and local government web resources and services.